Wind_Speed
18 19 21 22 23 23 24 24 24 24 23 20 20 22 24 25 26 26 22 24 27 25 10 8 8 5 4 5 4 4 6 6 10 19 19 16 16 18 19 19 30 22 19 19 23 22 22
17 18 18 21 22 23 25 26 26 25 23 20 18 20 22 23 24 26 27 27 24 22 15 9 9 7 5 4 3 5 5 6 12 19 19 20 18 15 15 16 20 22 18 20 23 21 20
16 17 18 19 20 22 24 26 27 27 25 21 17 18 19 20 22 26 30 27 31 22 23 16 13 11 8 1 6 5 5 7 12 11 16 22 19 16 20 21 20 22 20 22 21 22 23
16 17 18 19 21 22 24 25 27 28 27 24 17 16 16 17 21 25 29 29 23 34 31 19 10 12 7 7 11 6 6 10 14 9 7 4 18 18 26 18 23 24 21 17 22 24 24
16 17 18 19 21 22 23 25 27 28 28 27 21 15 13 13 17 22 27 29 30 27 31 40 19 12 7 6 6 8 10 8 13 14 11 6 19 22 24 21 22 23 21 16 22 25 25
15 16 18 18 20 21 22 24 27 28 28 28 25 16 12 9 11 17 22 23 26 27 30 27 39 12 15 7 7 9 10 9 10 15 11 25 27 24 24 22 22 21 17 16 15 22 23
14 15 16 18 20 21 22 24 25 27 27 29 27 20 13 10 10 13 16 17 19 23 27 30 32 37 17 8 6 8 10 9 11 11 27 25 23 18 21 19 16 17 15 17 19 22 21
14 14 15 17 19 20 22 23 25 26 27 27 27 24 16 11 9 10 12 13 16 15 21 22 26 26 31 19 16 8 8 8 9 18 18 20 15 19 18 17 13 13 17 18 19 20 18
14 14 14 16 18 20 21 23 24 25 26 27 27 26 21 15 11 11 11 11 11 6 13 22 21 25 21 27 17 15 15 9 13 18 17 17 16 15 13 18 16 15 14 19 19 21 13
16 15 15 16 17 19 20 22 24 25 26 26 26 26 24 18 14 11 10 8 7 2 4 16 15 17 16 14 21 16 18 18 17 15 14 10 14 12 13 17 14 10 12 14 19 18 9
15 15 15 15 17 18 20 21 22 24 25 26 25 26 24 22 18 12 9 7 6 4 3 9 14 14 16 14 13 24 24 13 7 14 6 12 13 10 5 14 11 11 12 12 16 13 10
14 14 14 15 16 18 19 20 21 23 24 25 25 25 25 24 21 17 11 7 6 3 6 5 10 9 12 14 12 7 7 13 11 11 11 17 17 10 5 7 11 14 14 12 11 9 2
13 14 14 13 14 17 19 20 20 21 23 24 24 24 24 24 21 18 15 9 4 7 3 6 8 8 11 10 10 8 5 4 9 8 12 11 10 11 9 8 8 13 14 4 3 2 1
13 13 14 13 13 15 17 18 19 21 21 23 23 22 23 23 22 19 13 10 9 7 8 6 7 8 9 7 8 7 7 7 6 11 9 7 5 11 10 9 6 11 4 1 3 4 3
14 13 14 13 13 14 16 17 18 19 21 21 22 20 20 21 20 18 13 13 5 4 6 6 4 6 7 7 4 7 12 9 7 6 3 6 5 10 11 11 10 10 4 2 5 4 2
16 14 13 14 13 14 15 16 17 17 19 20 20 19 19 18 18 17 15 15 8 8 8 8 6 7 7 8 6 3 5 10 9 5 5 5 7 9 10 8 6 8 8 1 0 2 2
17 16 15 14 15 16 16 16 16 16 17 18 19 17 17 16 15 16 17 13 11 9 9 8 9 7 8 7 8 6 4 6 3 5 7 6 4 7 8 6 6 6 7 3 2 1 1
18 18 16 16 16 15 17 17 15 15 15 16 15 14 15 14 15 15 16 13 11 9 8 8 7 8 8 8 8 5 3 1 2 3 4 4 5 6 7 4 5 7 6 6 2 1 1
18 18 18 17 16 16 17 18 17 17 15 14 12 10 12 10 11 13 13 12 11 9 8 7 7 8 8 8 4 6 5 4 2 2 2 1 2 3 1 4 9 8 10 10 8 6 6
20 20 20 20 20 18 17 18 18 18 17 15 13 9 10 6 11 11 10 10 10 9 8 7 7 6 7 7 5 3 3 3 3 2 2 1 2 3 2 2 3 5 9 12 14 8 9
22 21 22 23 23 22 20 19 20 20 18 17 14 10 10 8 9 9 9 8 8 8 8 8 8 7 6 5 5 6 3 1 2 3 4 3 4 5 7 9 10 12 13 13 16 18 9
25 24 25 25 26 26 26 26 26 24 21 18 16 13 12 11 7 7 8 6 5 6 7 7 8 8 7 7 5 4 4 3 2 2 3 5 5 6 10 13 15 18 18 20 22 25 28
29 28 28 29 29 30 30 30 27 23 20 19 18 16 14 13 11 9 7 6 8 7 4 6 7 8 10 8 8 8 9 8 8 9 8 8 6 6 4 7 11 15 10 18 20 22 23
33 33 34 34 33 34 33 29 25 20 17 20 19 17 15 15 13 12 11 9 9 9 8 9 8 8 9 10 11 12 13 12 14 13 12 10 8 6 7 7 3 6 4 5 8 7 6
33 32 31 29 29 30 24 22 23 18 15 16 18 17 16 15 15 14 14 13 12 11 10 10 11 12 11 11 12 9 9 9 7 10 9 10 11 6 4 5 12 17 16 11 9 7 8
30 26 25 26 28 29 25 22 19 15 12 13 13 14 16 16 15 12 11 12 14 15 16 14 12 11 13 13 10 5 3 6 5 5 6 7 9 10 6 5 4 6 6 6 7 8 14
31 30 30 29 26 24 22 22 19 19 16 15 14 14 14 15 16 16 15 14 14 14 15 15 14 15 14 13 13 11 10 12 7 7 8 9 10 14 13 9 10 16 17 13 7 8 12
32 31 30 30 29 29 28 24 23 23 23 22 21 20 19 20 19 19 18 18 18 17 17 16 16 18 15 14 10 11 9 10 11 14 12 11 7 7 8 7 11 14 13 12 13 10 14
33 34 35 35 35 35 31 30 27 25 25 24 23 25 25 25 20 18 16 16 19 20 21 21 19 17 11 10 9 7 10 12 15 14 19 16 18 15 13 13 18 19 15 15 18 24 27
Wind_Direction
42 42 41 40 38 34 31 25 23 20 16 11 9 15 16 16 16 18 17 10 14 21 20 29 32 28 24 13 37 173 177 166 184 180 184 184 182 182 186 179 191 181 173 186 187 195 195
39 37 37 38 34 32 30 28 24 23 17 13 12 16 20 21 23 28 31 30 23 35 25 28 26 18 350 349 353 167 157 167 171 178 189 180 176 174 171 175 178 184 173 188 192 195 196
33 30 30 29 27 22 25 25 25 24 20 13 13 18 22 25 29 36 38 40 37 37 36 34 21 32 353 33 131 143 160 157 162 179 217 170 162 169 165 157 170 169 178 190 191 187 190
26 24 25 22 22 21 21 21 21 23 21 15 13 16 23 29 36 44 47 45 40 38 39 32 8 9 32 122 129 148 152 160 159 149 158 212 147 155 152 156 162 169 181 180 187 187 189
21 21 21 19 19 18 20 19 17 19 20 17 15 10 19 34 40 45 48 48 47 43 46 42 26 32 32 64 126 150 114 128 167 176 178 214 151 153 154 159 158 171 185 185 179 186 184
16 16 16 15 19 15 17 18 17 18 18 17 17 10 7 16 23 33 45 42 42 40 42 44 32 41 48 79 109 100 127 142 158 152 161 164 148 155 160 163 169 176 176 174 172 177 179
13 11 11 11 16 16 15 15 16 16 18 17 15 15 4 356 352 16 30 41 36 32 30 35 29 31 39 54 104 135 127 106 157 170 128 145 145 155 167 177 155 172 171 166 168 171 168
7 7 7 6 9 13 13 14 14 14 16 17 16 17 12 359 347 346 359 9 16 30 31 28 27 30 36 64 66 80 128 144 140 146 118 145 147 155 163 181 167 170 166 158 164 168 177
358 2 3 1 2 7 9 9 12 12 14 14 18 17 17 12 358 345 338 344 348 11 41 38 36 35 40 43 62 85 99 148 120 110 122 146 153 143 151 161 174 173 167 163 165 163 167
349 352 357 357 358 0 3 3 5 10 11 13 14 18 17 17 8 355 355 1 13 47 65 42 36 30 40 42 39 106 84 88 103 118 119 131 146 121 101 159 167 165 163 156 160 158 167
341 344 347 351 353 355 358 358 1 5 8 10 13 16 18 19 15 9 2 8 20 45 53 12 36 44 50 64 72 82 86 78 123 148 141 152 176 171 104 104 153 165 150 154 163 175 146
334 334 338 342 348 350 353 354 358 1 3 8 10 13 17 20 20 13 17 15 29 50 42 37 47 55 59 76 93 85 43 72 97 125 126 156 184 189 194 103 106 131 129 123 137 144 126
325 325 326 332 341 345 347 350 354 359 1 3 8 11 15 21 22 20 23 27 38 52 30 28 35 49 64 78 104 111 71 85 107 110 112 128 156 174 167 141 126 137 138 113 121 170 103
313 316 315 321 331 339 342 346 350 354 359 1 3 9 13 19 24 26 29 55 63 44 55 37 24 28 49 65 75 115 107 125 70 106 95 101 124 147 164 166 166 173 175 195 147 174 128
301 303 305 309 318 329 336 340 346 350 354 359 1 5 13 19 25 34 40 57 70 54 29 14 21 34 32 35 84 83 88 100 83 21 86 127 130 147 155 166 166 189 209 89 102 96 140
290 294 296 301 307 319 327 333 340 347 349 353 359 1 10 21 26 37 46 65 69 56 44 40 40 36 40 36 39 67 81 122 122 61 86 99 117 149 157 165 181 184 188 215 25 130 192
284 287 289 294 300 311 319 324 329 337 344 348 352 0 5 17 24 38 52 65 58 48 45 49 49 43 37 41 39 50 70 144 141 71 105 101 124 161 162 180 188 180 195 200 159 75 340
279 283 285 291 298 306 315 319 322 325 332 340 349 358 360 7 22 32 44 53 56 57 51 48 51 54 43 34 32 65 84 84 144 77 92 96 110 150 190 197 212 212 214 214 189 189 174
272 278 284 289 294 302 308 311 314 318 323 327 341 346 354 1 15 27 36 40 49 52 52 50 50 45 46 48 61 38 40 79 107 42 25 105 129 114 162 241 236 229 232 235 234 240 220
268 277 285 289 293 296 300 305 310 316 319 321 324 330 338 347 3 11 22 29 32 35 39 50 51 49 39 46 48 60 47 32 26 13 10 7 241 246 272 217 194 218 233 230 225 222 229
267 273 278 282 287 291 296 298 305 307 309 310 309 308 317 322 336 351 1 5 15 20 21 29 32 32 35 33 47 38 29 348 304 301 301 311 286 280 271 272 272 272 265 252 242 242 247
271 273 277 282 287 290 295 298 297 298 295 292 291 292 293 304 306 318 330 338 353 356 354 1 359 2 8 6 2 352 344 331 303 298 296 280 263 278 278 274 272 271 264 262 258 257 261
270 273 276 279 282 287 291 298 301 298 288 278 278 281 282 287 293 299 300 304 309 321 317 321 327 335 338 342 336 328 326 312 290 284 282 275 273 301 273 293 295 285 262 250 263 269 268
263 269 272 274 277 279 286 291 294 295 288 280 273 272 275 275 276 281 287 291 294 295 295 298 300 303 306 311 313 311 308 306 297 286 275 266 265 266 272 282 237 240 246 271 271 265 257
266 263 262 266 272 275 278 285 290 288 284 278 276 275 273 274 275 277 279 282 285 286 291 293 298 299 300 306 313 315 306 301 298 294 277 257 252 256 252 241 283 275 265 253 246 245 245
258 261 263 267 270 270 272 275 281 276 279 278 276 275 275 277 279 274 274 280 285 286 285 285 284 284 289 291 292 273 274 289 278 293 291 279 255 229 260 251 256 270 264 248 252 237 234
247 247 249 253 257 261 265 268 264 267 270 273 274 273 274 276 277 276 276 275 273 275 279 285 282 280 279 277 265 256 251 251 249 243 268 266 257 244 244 255 268 263 264 265 256 249 257
239 243 248 248 251 259 269 260 267 268 264 265 271 274 274 272 272 272 271 273 276 274 271 274 281 279 272 259 256 257 242 243 253 251 262 258 248 230 225 233 267 256 252 244 262 279 285
236 239 243 241 243 243 246 245 260 269 268 268 266 271 273 271 265 260 258 259 265 271 272 268 266 267 259 257 247 246 258 256 263 259 260 252 251 258 245 258 281 283 263 260 257 275 282
Height
3161 3158 3155 3152 3149 3146 3142 3137 3133 3129 3124 3120 3116 3112 3108 3102 3096 3092 3085 3080 3075 3069 3067 3066 3064 3064 3063 3062 3062 3062 3062 3062 3063 3066 3070 3074 3078 3081 3085 3090 3094 3103 3107 3113 3116 3121 3125
3162 3159 3157 3153 3151 3147 3143 3138 3134 3129 3124 3120 3117 3113 3109 3104 3099 3094 3088 3083 3078 3073 3069 3067 3065 3064 3064 3064 3062 3062 3063 3063 3064 3067 3071 3072 3077 3082 3085 3090 3098 3102 3108 3113 3116 3120 3124
3162 3161 3158 3154 3152 3148 3144 3139 3135 3130 3125 3121 3117 3114 3110 3106 3101 3096 3090 3086 3082 3077 3072 3070 3067 3065 3064 3065 3062 3063 3065 3065 3066 3069 3070 3070 3077 3083 3086 3092 3098 3102 3109 3113 3115 3118 3122
3164 3161 3158 3155 3152 3149 3145 3140 3136 3131 3126 3122 3118 3114 3111 3108 3103 3099 3094 3089 3085 3081 3075 3072 3069 3067 3066 3064 3063 3065 3065 3066 3068 3070 3071 3073 3078 3083 3088 3093 3098 3104 3110 3112 3113 3116 3121
3164 3161 3159 3156 3153 3149 3146 3142 3137 3133 3128 3122 3119 3115 3113 3110 3105 3101 3097 3093 3089 3086 3081 3076 3073 3069 3067 3066 3066 3066 3067 3069 3069 3071 3073 3077 3081 3085 3090 3095 3099 3104 3107 3110 3112 3115 3119
3164 3162 3160 3157 3154 3150 3146 3143 3138 3134 3129 3123 3119 3115 3113 3111 3107 3103 3099 3097 3093 3089 3086 3081 3077 3072 3070 3069 3068 3069 3070 3070 3071 3073 3074 3078 3082 3087 3091 3095 3096 3102 3106 3108 3111 3116 3120
3164 3162 3159 3157 3154 3151 3147 3143 3139 3134 3130 3125 3120 3115 3112 3110 3108 3104 3101 3099 3098 3094 3088 3084 3081 3077 3074 3072 3071 3071 3072 3072 3075 3076 3075 3081 3086 3090 3093 3096 3098 3103 3106 3107 3111 3115 3121
3164 3161 3159 3157 3154 3151 3148 3144 3140 3135 3131 3126 3121 3116 3112 3109 3107 3105 3103 3100 3098 3098 3093 3088 3086 3082 3080 3076 3075 3074 3076 3078 3077 3078 3081 3087 3088 3090 3094 3096 3100 3104 3106 3108 3112 3116 3121
3163 3161 3159 3157 3154 3151 3148 3144 3140 3136 3132 3127 3122 3117 3113 3109 3107 3105 3103 3101 3099 3097 3096 3093 3090 3087 3086 3085 3081 3080 3080 3080 3082 3083 3086 3088 3092 3094 3095 3098 3102 3104 3107 3108 3112 3116 3121
3163 3161 3159 3156 3154 3151 3147 3144 3140 3137 3133 3128 3123 3118 3113 3109 3107 3105 3103 3100 3099 3097 3098 3099 3094 3093 3091 3087 3087 3085 3085 3087 3086 3089 3090 3093 3094 3096 3098 3100 3103 3105 3106 3110 3113 3117 3120
3163 3161 3159 3156 3154 3151 3147 3144 3141 3137 3133 3129 3124 3119 3115 3109 3107 3105 3104 3101 3100 3099 3100 3103 3099 3097 3093 3093 3094 3091 3091 3091 3091 3091 3094 3096 3096 3099 3100 3102 3104 3106 3108 3110 3114 3117 3119
3162 3160 3158 3156 3153 3150 3147 3144 3141 3137 3134 3129 3125 3120 3116 3112 3108 3106 3103 3101 3101 3103 3104 3106 3104 3101 3099 3096 3095 3094 3094 3094 3092 3094 3095 3097 3098 3101 3103 3104 3105 3107 3110 3112 3115 3117 3119
3160 3158 3157 3154 3152 3150 3147 3144 3141 3137 3134 3130 3125 3121 3117 3113 3110 3106 3104 3103 3104 3103 3110 3109 3106 3103 3101 3100 3098 3098 3098 3097 3097 3098 3099 3101 3101 3102 3105 3107 3108 3109 3110 3114 3118 3118 3118
3158 3157 3155 3153 3151 3149 3147 3145 3141 3138 3134 3130 3127 3123 3119 3114 3111 3108 3105 3105 3105 3109 3108 3108 3106 3105 3103 3101 3101 3100 3100 3100 3100 3100 3101 3103 3108 3106 3106 3108 3109 3110 3111 3111 3112 3114 3117
3155 3154 3153 3152 3150 3148 3146 3143 3141 3138 3134 3131 3128 3124 3121 3117 3113 3110 3109 3106 3109 3109 3109 3108 3106 3106 3105 3103 3103 3102 3102 3103 3103 3103 3104 3105 3107 3107 3108 3109 3112 3111 3112 3113 3112 3115 3116
3152 3151 3150 3150 3149 3146 3144 3142 3140 3137 3134 3131 3128 3125 3122 3118 3115 3112 3111 3109 3110 3110 3109 3109 3108 3107 3106 3105 3105 3103 3102 3104 3104 3104 3104 3105 3107 3108 3109 3111 3112 3112 3114 3115 3113 3115 3114
3148 3148 3147 3147 3146 3145 3143 3141 3139 3136 3133 3131 3128 3125 3123 3120 3117 3114 3111 3111 3111 3111 3110 3110 3109 3108 3107 3105 3105 3104 3105 3106 3105 3105 3105 3105 3107 3111 3111 3111 3111 3113 3113 3113 3114 3115 3114
3143 3145 3144 3144 3143 3142 3140 3139 3138 3135 3132 3130 3128 3126 3123 3122 3121 3116 3114 3113 3112 3111 3111 3110 3110 3109 3108 3107 3106 3106 3107 3107 3107 3106 3106 3106 3107 3109 3110 3110 3111 3111 3112 3113 3114 3116 3115
3138 3140 3140 3140 3140 3139 3137 3136 3135 3133 3131 3129 3126 3125 3123 3121 3120 3117 3116 3115 3114 3113 3112 3111 3111 3110 3109 3108 3109 3107 3107 3107 3107 3108 3109 3108 3108 3109 3110 3112 3110 3110 3110 3111 3112 3113 3114
3133 3134 3135 3136 3136 3135 3134 3132 3132 3131 3129 3129 3127 3125 3123 3121 3119 3118 3116 3116 3115 3114 3113 3112 3112 3111 3110 3109 3108 3108 3108 3108 3107 3108 3109 3109 3108 3109 3109 3108 3108 3108 3108 3108 3110 3110 3109
3128 3128 3129 3130 3131 3131 3130 3129 3128 3127 3127 3127 3125 3123 3121 3120 3119 3118 3116 3116 3115 3114 3114 3113 3112 3111 3111 3110 3109 3109 3109 3109 3108 3108 3107 3108 3107 3107 3107 3107 3107 3107 3107 3106 3106 3107 3107
3122 3123 3123 3124 3124 3125 3125 3124 3123 3123 3123 3123 3122 3121 3119 3118 3117 3117 3116 3115 3115 3114 3114 3113 3112 3111 3111 3109 3109 3108 3108 3108 3108 3107 3107 3106 3106 3105 3104 3103 3102 3101 3101 3101 3101 3100 3100
3116 3117 3117 3117 3118 3118 3118 3119 3118 3117 3118 3117 3117 3116 3116 3115 3115 3115 3114 3113 3112 3112 3113 3112 3111 3111 3110 3110 3108 3107 3106 3106 3106 3105 3105 3104 3104 3103 3101 3100 3099 3096 3093 3094 3095 3095 3096
3107 3109 3110 3111 3111 3112 3113 3114 3113 3112 3111 3113 3112 3111 3112 3111 3111 3111 3111 3111 3110 3110 3110 3110 3109 3109 3109 3107 3106 3105 3104 3103 3102 3101 3101 3101 3102 3102 3100 3099 3098 3091 3090 3090 3091 3091 3091
3099 3101 3102 3103 3103 3104 3106 3107 3108 3107 3107 3107 3108 3109 3108 3107 3108 3108 3108 3107 3107 3107 3107 3107 3107 3107 3106 3106 3105 3103 3102 3101 3098 3097 3097 3099 3101 3101 3099 3097 3093 3088 3086 3086 3086 3087 3087
3091 3093 3094 3095 3097 3098 3100 3102 3103 3102 3102 3102 3103 3104 3104 3104 3104 3104 3103 3104 3104 3103 3104 3104 3103 3103 3103 3102 3103 3102 3101 3099 3098 3096 3096 3096 3096 3100 3098 3097 3090 3085 3084 3084 3084 3083 3082
3083 3085 3087 3088 3090 3092 3094 3095 3097 3097 3098 3098 3099 3099 3100 3099 3099 3100 3100 3099 3099 3099 3100 3100 3099 3099 3098 3098 3098 3097 3096 3096 3095 3093 3093 3093 3092 3093 3094 3093 3086 3083 3081 3081 3084 3084 3079
3075 3077 3079 3081 3082 3084 3086 3088 3090 3091 3092 3094 3094 3094 3095 3094 3094 3094 3094 3094 3094 3094 3094 3095 3096 3094 3094 3093 3092 3092 3091 3091 3090 3089 3089 3089 3089 3086 3086 3088 3082 3078 3078 3080 3078 3075 3075
3066 3069 3071 3073 3074 3076 3077 3080 3082 3084 3085 3086 3088 3087 3087 3088 3089 3088 3088 3088 3089 3089 3089 3088 3091 3090 3090 3090 3089 3087 3088 3087 3085 3084 3084 3084 3085 3083 3082 3077 3076 3074 3073 3072 3071 3071 3069